FW3669 Weather Reports


time (UTC)temp
F
wind
direction
speed
knots
gust
knots
rain 1hr
in
rain 24hr
in
rain mn
in
humidity
%
barometer
mb
20260506103052 40 17 6.1 8.7 0.00 0.01 0.00 79 1010.1
20260506101542 40 15 6.1 9.6 0.00 0.01 0.00 79 1009.7
20260506100039 40 33 4.3 11.3 0.00 0.01 0.00 79 1009.7
20260506094537 41 356 5.2 8.7 0.00 0.01 0.00 77 1009.5
20260506093034 41 12 3.5 9.6 0.00 0.01 0.00 76 1009.3
20260506091534 42 328 6.1 9.6 0.00 0.01 0.00 74 1009.2
20260506090042 42 357 4.3 7.0 0.00 0.01 0.00 75 1009.1
20260506084526 42 333 2.6 3.5 0.00 0.01 0.00 76 1009.2
20260506083025 42 311 1.7 3.5 0.00 0.01 0.00 76 1009.3
20260506081523 42 315 1.7 5.2 0.00 0.01 0.00 76 1009.3
20260506073021 43 345 1.7 7.8 0.00 0.01 0.00 77 1009.1
20260506071518 43 340 4.3 7.0 0.00 0.01 0.00 78 1009.1
20260506061504 46 349 4.3 11.3 0.00 0.01 0.00 75 1008.5
20260506050108 49 297 3.5 6.1 0.00 0.01 0.00 62 1008.0
20260506044551 49 311 2.6 6.1 0.00 0.01 0.00 61 1008.1
20260506043044 49 293 1.7 5.2 0.00 0.01 0.00 61 1008.3
20260506041541 49 288 1.7 5.2 0.00 0.01 0.00 61 1008.4
20260506040042 50 276 0.9 4.3 0.00 0.01 0.01 59 1008.5
20260506034542 50 276 0.9 4.3 0.00 0.01 0.01 58 1008.3
20260506033041 50 238 0.9 4.3 0.00 0.01 0.01 57 1008.3
20260506031546 51 281 1.7 5.2 0.00 0.01 0.01 56 1008.3
20260506030036 51 272 3.5 7.0 0.00 0.01 0.01 55 1008.5
20260506024542 51 278 1.7 7.0 0.00 0.01 0.01 55 1008.5
20260506023033 51 268 1.7 5.2 0.00 0.01 0.01 55 1008.7
20260506021532 52 244 2.6 4.3 0.00 0.01 0.01 55 1008.1
20260506020029 52 302 2.6 5.2 0.00 0.01 0.01 55 1008.2
20260506014530 52 293 2.6 5.2 0.00 0.01 0.01 54 1008.0
20260506013026 52 248 1.7 5.2 0.00 0.01 0.01 56 1007.8
20260506011525 52 274 0.9 7.0 0.00 0.01 0.01 60 1007.9
20260506010024 52 270 0.9 3.5 0.00 0.01 0.01 63 1007.9
20260506004522 52 243 0.0 2.6 0.00 0.01 0.01 67 1007.8
20260506003020 53 239 0.0 1.7 0.00 0.01 0.01 66 1007.5
20260506001519 53 250 0.0 1.7 0.00 0.01 0.01 65 1007.3
20260506000018 54 234 1.7 4.3 0.00 0.01 0.01 64 1007.2
20260505234520 54 248 0.9 3.5 0.00 0.01 0.01 64 1006.9
20260505233017 54 247 0.9 6.1 0.00 0.01 0.01 63 1006.9
20260505231519 55 237 1.7 6.1 0.00 0.01 0.01 62 1006.9
20260505230018 55 285 3.5 7.8 0.00 0.01 0.01 62 1007.0
20260505224516 55 270 2.6 6.1 0.00 0.01 0.01 64 1007.0
20260505223016 55 267 3.5 7.0 0.00 0.01 0.01 65 1007.1
20260505221514 55 271 1.7 9.6 0.00 0.01 0.01 66 1007.0
20260505220013 55 274 3.5 6.1 0.00 0.01 0.01 64 1007.0
20260505214523 55 253 3.5 7.8 0.00 0.01 0.01 65 1006.9
20260505213015 55 250 2.6 7.8 0.00 0.01 0.01 65 1007.1
20260505211512 55 266 2.6 6.1 0.00 0.01 0.01 66 1007.0
20260505210011 55 266 3.5 8.7 0.00 0.01 0.01 65 1007.0
20260505204510 55 286 4.3 8.7 0.00 0.01 0.01 65 1007.0
20260505203010 55 274 2.6 6.1 0.00 0.01 0.01 65 1007.0
20260505201512 55 236 2.6 10.4 0.00 0.01 0.01 65 1007.1
20260505200009 55 260 4.3 9.6 0.00 0.01 0.01 65 1007.2
20260505194508 55 272 3.5 9.6 0.00 0.01 0.01 65 1007.2
20260505193009 54 269 3.5 7.0 0.00 0.01 0.01 71 1007.2
20260505191507 54 270 3.5 7.8 0.00 0.01 0.01 74 1007.2
20260505190007 54 264 3.5 6.1 0.00 0.01 0.01 75 1007.2
20260505184509 53 245 0.9 2.6 0.00 0.01 0.01 79 1007.0
20260505183007 52 121 1.7 5.2 0.00 0.01 0.01 81 1006.9
20260505181504 51 127 1.7 4.3 0.00 0.01 0.01 81 1006.9
20260505180003 50 128 2.6 5.2 0.00 0.01 0.01 81 1006.7
20260505174506 49 93 0.9 3.5 0.00 0.01 0.01 82 1006.8
20260505173001 50 123 1.7 4.3 0.00 0.01 0.01 81 1006.7
20260505171506 50 206 0.9 2.6 0.01 0.01 0.01 80 1006.7
20260505170101 49 162 0.0 0.9 0.01 0.01 0.01 78 1006.9
20260505164606 49 167 0.0 1.7 0.01 0.01 0.01 80 1006.7
20260505163059 49 169 0.9 1.7 0.01 0.01 0.01 78 1006.7
20260505161606 49 301 0.0 0.9 0.00 0.00 0.00 72 1006.8
20260505153101 51 333 3.5 6.1 0.00 0.00 0.00 70 1006.6
20260505151603 51 308 0.9 1.7 0.00 0.00 0.00 66 1006.1
20260505140107 51 23 1.7 3.5 0.00 0.00 0.00 68 1005.4
20260505124537 50 15 4.3 7.8 0.00 0.00 0.00 68 1004.3
20260505123037 49 41 3.5 7.8 0.00 0.00 0.00 69 1004.3
20260505121538 49 43 5.2 9.6 0.00 0.00 0.00 70 1004.0
20260505120042 49 348 3.5 6.1 0.00 0.00 0.00 74 1003.4
20260505114527 49 4 3.5 7.8 0.00 0.00 0.00 75 1003.3
20260505113026 50 30 6.1 10.4 0.00 0.00 0.00 77 1003.3
20260505111524 50 333 4.3 9.6 0.00 0.00 0.00 79 1002.6